Location: Les Jeannots
(43.2262°N, 5.5774°E)
Time: 18:04:04
(UTC+00:00)

Cosmos 2221 - Pass Details

Date: 05 July 2020
Orbit: 592 x 617 km, 82.5° (Epoch: 12 August)

Event Time Altitude Azimuth Distance (km) Brightness Sun altitude
Rises 20:54:35 0° 4° (N) 2,895 6.8 -13.6°
Reaches altitude 10° 20:57:13 10° 19° (NNE) 1,981 5.6 -13.9°
Maximum altitude 21:00:44 23° 72° (ENE) 1,311 4.0 -14.3°
Enters shadow 21:02:30 18° 106° (ESE) 1,505 4.1 -14.5°
